Weather History for Moline, IL

Change the Weather History Date:

Tuesday, March 25, 2014

  Actual Average Record
Temperature  
Mean Temperature 22 °F 43 °F  
Max Temperature 29 °F 53 °F 81 °F (1907)
Min Temperature 15 °F 33 °F 1 °F (1960)
Degree Days  
Heating Degree Days 43 22  
Month to date heating degree days 892 681  
Since 1 July heating degree days 6562 5479  
Cooling Degree Days 0 0  
Month to date cooling degree days 0 0  
Year to date cooling degree days 0 0  
Moisture  
Dew Point 14 °F    
Average Humidity 60    
Maximum Humidity 81    
Minimum Humidity 39    
Precipitation  
Precipitation 0.00 in 0.09 in 1.92 in (1945)
Month to date precipitation 0.71 2.27  
Year to date precipitation 4.73 5.36  
Snow  
Snow 0.00 in 0.10 in - ()
Month to date snowfall 10.3 3.5  
Since 1 July snowfall 65.1 30.2  
Snow Depth 1.00 in    
Sea Level Pressure  
Sea Level Pressure 30.21 in    
Wind  
Wind Speed 14 mph (NW)    
Max Wind Speed 28 mph    
Max Gust Speed 39 mph    
Visibility 9 miles    
Events Fog , Snow    
T = Trace of Precipitation, MM = Missing Value Source: NWS Daily Summary

Daily Weather History Graph

Daily Weather History Graph

Search for Another Location

Airport:

Trip Planner

Search our weather history database for the weather conditions in past years. The results will help you decide how hot, cold, wet, or windy it might be!

Date:

Astronomy

Mar. 25, 2014 Rise Set
Actual Time 6:56 AM CDT 7:19 PM CDT
Civil Twilight 6:29 AM CDT 7:47 PM CDT
Nautical Twilight 5:56 AM CDT 8:20 PM CDT
Astronomical Twilight 5:23 AM CDT 8:53 PM CDT
Moon 3:22 AM CDT (3/25) 1:47 PM CDT (3/25)
Length of Visible Light 13h 18m
Length of Day
12h 22m
Waning Crescent, 32% of the Moon is Illuminated
Mar 25
Waning Crescent
Mar 30
New
Apr 7
First Quarter
Apr 15
Full
Apr 22
Last Quarter

Hourly Weather History & Observations

Time (CDT) Temp. Windchill Dew Point Humidity Pressure Visibility Wind Dir Wind Speed Gust Speed Precip Events Conditions
12:11 AM 26.6 °F 20.0 °F 26.6 °F 100% 30.12 in 0.5 mi NNW 5.8 mph 19.6 mph 0.03 in Fog , Snow Snow
12:15 AM 26.6 °F 21.2 °F 26.6 °F 100% 30.12 in 1.5 mi NNW 4.6 mph - 0.04 in Snow Light Snow
12:19 AM 26.6 °F 21.2 °F 26.6 °F 100% 30.11 in 3.0 mi NNW 4.6 mph - 0.04 in Snow Light Snow
12:26 AM 26.6 °F 21.2 °F 24.8 °F 93% 30.12 in 8.0 mi NW 4.6 mph - 0.04 in   Overcast
12:52 AM 26.1 °F 20.5 °F 23.0 °F 88% 30.14 in 9.0 mi WNW 4.6 mph - 0.04 in   Mostly Cloudy
1:52 AM 27.0 °F 17.3 °F 21.0 °F 78% 30.13 in 10.0 mi WNW 10.4 mph - N/A   Clear
2:52 AM 25.0 °F 14.2 °F 15.1 °F 66% 30.14 in 10.0 mi NW 11.5 mph - N/A   Clear
3:52 AM 23.0 °F 13.1 °F 14.0 °F 68% 30.13 in 10.0 mi WNW 9.2 mph - N/A   Clear
4:52 AM 21.9 °F 12.5 °F 12.0 °F 66% 30.14 in 10.0 mi WNW 8.1 mph - N/A   Clear
5:52 AM 21.9 °F 12.5 °F 12.9 °F 68% 30.14 in 10.0 mi WNW 8.1 mph - N/A   Clear
6:52 AM 21.9 °F 8.7 °F 14.0 °F 72% 30.16 in 10.0 mi WNW 15.0 mph 23.0 mph N/A   Clear
7:52 AM 23.0 °F 7.6 °F 12.9 °F 65% 30.18 in 10.0 mi WNW 21.9 mph 27.6 mph N/A   Clear
8:52 AM 24.1 °F 9.4 °F 12.9 °F 62% 30.19 in 10.0 mi WNW 20.7 mph - N/A   Clear
9:52 AM 24.1 °F 7.7 °F 10.0 °F 55% 30.22 in 10.0 mi NW 26.5 mph 35.7 mph N/A   Clear
10:52 AM 24.1 °F 9.4 °F 9.0 °F 53% 30.25 in 10.0 mi NW 20.7 mph 29.9 mph N/A   Clear
11:52 AM 24.1 °F 9.8 °F 10.9 °F 57% 30.26 in 10.0 mi NW 19.6 mph 26.5 mph N/A   Mostly Cloudy
12:52 PM 25.0 °F 10.2 °F 10.9 °F 55% 30.28 in 10.0 mi NW 21.9 mph 26.5 mph N/A   Clear
1:52 PM 27.0 °F 12.2 °F 10.9 °F 51% 30.28 in 10.0 mi NW 24.2 mph 31.1 mph N/A   Mostly Cloudy
2:52 PM 27.0 °F 12.8 °F 10.0 °F 49% 30.27 in 10.0 mi WNW 21.9 mph 31.1 mph N/A   Mostly Cloudy
3:52 PM 28.0 °F 15.3 °F 9.0 °F 45% 30.27 in 10.0 mi NW 18.4 mph 28.8 mph N/A   Mostly Cloudy
4:52 PM 26.1 °F 12.0 °F 7.0 °F 44% 30.27 in 10.0 mi NW 20.7 mph 26.5 mph N/A   Scattered Clouds
5:52 PM 28.0 °F 15.7 °F 7.0 °F 41% 30.27 in 10.0 mi NW 17.3 mph 27.6 mph N/A   Clear
6:52 PM 26.1 °F 15.0 °F 7.0 °F 44% 30.27 in 10.0 mi NW 12.7 mph 21.9 mph N/A   Partly Cloudy
7:52 PM 25.0 °F 13.1 °F 9.0 °F 51% 30.28 in 10.0 mi NW 13.8 mph - N/A   Overcast
8:52 PM 23.0 °F 12.4 °F 8.1 °F 53% 30.30 in 10.0 mi NW 10.4 mph - N/A   Mostly Cloudy
9:52 PM 21.9 °F 14.5 °F 9.0 °F 58% 30.30 in 10.0 mi NNW 5.8 mph - N/A   Clear
10:52 PM 19.9 °F - 10.0 °F 65% 30.30 in 10.0 mi Calm Calm - N/A   Clear
11:52 PM 16.0 °F 10.4 °F 10.0 °F 77% 30.31 in 10.0 mi SW 3.5 mph - N/A   Clear